Location: Rochester
(43.1610°N, 77.6109°W)
Time: 07:50:45
(UTC-05:00)

CUTE 1.7 + AOD 2 - Pass Details

Date: 17 October 2021
Orbit: 592 x 610 km, 97.6° (Epoch: 29 November)

Event Time Altitude Azimuth Distance (km) Brightness Sun altitude
Rises 04:12:15 0° 32° (NNE) 2,882 ? -35.6°
Reaches altitude 10° 04:15:26 10° 58° (ENE) 1,972 ? -35.1°
Maximum altitude 04:17:43 14° 90° (E) 1,710 ? -34.7°
Enters shadow 04:19:52 10° 121° (ESE) 1,934 ? -34.4°
